Location: Amsterdam
(30.7274°N, 84.4357°W)
Time: 07:32:23
(UTC+00:00)

Explorer 11/Cluster Stage 4 - Pass Details

Date: 18 February 2026
Orbit: 463 x 1175 km, 28.8° (Epoch: 12 March)

Event Time Altitude Azimuth Distance (km) Brightness Sun altitude
Rises 19:53:09 0° 263° (W) 2,686 9.9 38.7°
Reaches altitude 10° 19:55:32 10° 260° (W) 1,719 9.1 38.4°
Maximum altitude 19:59:21 65° 179° (S) 523 6.8 37.9°
Drops below altitude 10° 20:02:55 10° 96° (E) 1,599 8.0 37.4°
Sets 20:05:03 0° 93° (E) 2,476 8.9 37.1°
